Weather History for Lima, OH

Change the Weather History Date:

Thursday, October 25, 2012

  Actual Average (KFDY) Record (KFDY)
Temperature  
Mean Temperature 66 °F -  
Max Temperature 77 °F 57 °F 80 °F (1963)
Min Temperature 55 °F 41 °F 23 °F (1960)
Cooling Degree Days 1    
Growing Degree Days 16 (Base 50)    
Moisture  
Dew Point 52 °F    
Average Humidity 58    
Maximum Humidity 77    
Minimum Humidity 43    
Precipitation  
Precipitation 0.00 in - - ()
Sea Level Pressure  
Sea Level Pressure 29.96 in    
Wind  
Wind Speed 10 mph (South)    
Max Wind Speed 18 mph    
Max Gust Speed 28 mph    
Visibility 10 miles    
Events      
Averages and records for this station are not official NWS values.
T = Trace of Precipitation, MM = Missing Value Source: NWS Daily Summary

Daily Weather History Graph

Daily Weather History Graph

Search for Another Location

Airport:

Trip Planner

Search our weather history database for the weather conditions in past years. The results will help you decide how hot, cold, wet, or windy it might be!

Date:

Astronomy

Oct. 25, 2012 Rise Set
Actual Time 7:58 AM EDT 6:40 PM EDT
Civil Twilight 7:30 AM EDT 7:08 PM EDT
Nautical Twilight 6:58 AM EDT 7:40 PM EDT
Astronomical Twilight 6:27 AM EDT 8:12 PM EDT
Moon 4:27 PM EDT (10/25) 3:53 AM EDT (10/25)
Length of Visible Light 11h 37m
Length of Day
10h 41m
Waxing Gibbous, 84% of the Moon is Illuminated
Oct 25
Waxing Gibbous
Oct 29
Full
Nov 6
Last Quarter
Nov 13
New
Nov 20
First Quarter

Hourly Weather History & Observations

Time (EDT) Temp. Dew Point Humidity Pressure Visibility Wind Dir Wind Speed Gust Speed Precip Events Conditions
12:53 AM 64.0 °F 52.0 °F 65% 30.01 in 10.0 mi South 9.2 mph - N/A   Clear
1:53 AM 63.0 °F 52.0 °F 67% 30.00 in 10.0 mi South 8.1 mph - N/A   Clear
2:53 AM 63.0 °F 51.1 °F 65% 30.00 in 10.0 mi South 6.9 mph - N/A   Clear
3:53 AM 62.1 °F 51.1 °F 67% 29.99 in 10.0 mi South 9.2 mph - N/A   Clear
4:53 AM 60.1 °F 50.0 °F 69% 29.99 in 10.0 mi South 9.2 mph - N/A   Clear
5:53 AM 59.0 °F 50.0 °F 72% 29.99 in 10.0 mi South 9.2 mph - N/A   Clear
6:53 AM 55.0 °F 48.0 °F 77% 30.00 in 10.0 mi South 8.1 mph - N/A   Clear
7:53 AM 55.0 °F 48.0 °F 77% 30.01 in 10.0 mi SSE 8.1 mph - N/A   Clear
10:53 AM 69.1 °F 51.1 °F 53% 30.03 in 10.0 mi SSW 10.4 mph 18.4 mph N/A   Clear
12:53 PM 73.9 °F 53.1 °F 48% 29.98 in 10.0 mi SSW 13.8 mph 23.0 mph N/A   Clear
1:53 PM 75.9 °F 54.0 °F 46% 29.96 in 10.0 mi South 18.4 mph 27.6 mph N/A   Clear
2:53 PM 77.0 °F 53.1 °F 43% 29.93 in 10.0 mi SSW 12.7 mph 26.5 mph N/A   Clear
3:53 PM 75.9 °F 53.1 °F 45% 29.92 in 10.0 mi SSW 15.0 mph 25.3 mph N/A   Clear
4:53 PM 75.9 °F 54.0 °F 46% 29.91 in 10.0 mi South 12.7 mph 24.2 mph N/A   Clear
5:53 PM 75.0 °F 52.0 °F 44% 29.91 in 10.0 mi South 13.8 mph 24.2 mph N/A   Clear
6:53 PM 71.1 °F 52.0 °F 51% 29.91 in 10.0 mi South 6.9 mph - N/A   Clear
7:53 PM 69.1 °F 52.0 °F 54% 29.92 in 10.0 mi South 8.1 mph - N/A   Clear
9:53 PM 66.9 °F 52.0 °F 59% 29.93 in 10.0 mi South 8.1 mph - N/A   Clear
10:53 PM 66.0 °F 51.1 °F 59% 29.92 in 10.0 mi South 8.1 mph - N/A   Clear
11:53 PM 66.0 °F 51.1 °F 59% 29.92 in 10.0 mi South 9.2 mph - N/A   Clear